EW3861 Weather Reports


time (UTC)temp
F
wind
direction
speed
knots
gust
knots
rain 1hr
in
rain 24hr
in
rain mn
in
humidity
%
barometer
mb
20260509171507 58 203 0.0 0.0 0.00 0.03 0.03 76 1012.2
20260509170058 58 206 0.0 0.0 0.00 0.03 0.03 73 1012.0
20260509164524 58 223 0.0 0.0 0.00 0.03 0.03 74 1011.9
20260509163117 58 222 0.0 0.0 0.00 0.03 0.03 74 1012.2
20260509161600 58 112 0.0 0.0 0.00 0.03 0.03 76 1012.0
20260509160020 58 259 0.0 0.0 0.00 0.03 0.03 80 1012.2
20260509154629 57 238 0.0 0.0 0.00 0.03 0.03 81 1012.4
20260509153041 55 217 0.0 0.0 0.00 0.03 0.03 87 1012.6
20260509151502 53 155 0.0 0.0 0.00 0.03 0.03 93 1012.7
20260509150055 52 264 0.0 0.0 0.00 0.03 0.03 96 1012.7
20260509144544 51 266 0.0 0.0 0.00 0.03 0.03 96 1012.6
20260509143135 50 292 0.0 0.0 0.00 0.03 0.03 97 1013.2
20260509141552 49 292 0.0 0.0 0.00 0.03 0.03 97 1013.1
20260509140010 48 293 0.0 0.0 0.00 0.03 0.03 97 1013.4
20260509134554 47 292 0.0 0.0 0.00 0.03 0.03 97 1013.5
20260509133058 46 292 0.0 0.0 0.01 0.03 0.03 97 1013.7
20260509131543 45 292 0.0 0.0 0.01 0.03 0.03 97 1013.9
20260509130039 44 292 0.0 0.0 0.01 0.03 0.03 96 1013.9
20260509124535 43 292 0.0 0.0 0.01 0.03 0.03 96 1014.0
20260509123034 42 292 0.0 0.0 0.00 0.02 0.02 96 1013.8
20260509121537 42 292 0.0 0.0 0.02 0.02 0.02 96 1013.9
20260509120034 41 292 0.0 0.0 0.02 0.02 0.02 96 1013.9
20260509114527 41 293 0.0 0.0 0.02 0.02 0.02 95 1014.0
20260509113027 40 292 0.0 0.0 0.02 0.02 0.02 95 1014.4
20260509111526 39 292 0.0 0.0 0.00 0.00 0.00 95 1014.6
20260509110025 39 292 0.0 0.0 0.00 0.00 0.00 94 1014.6
20260509104523 38 292 0.0 0.0 0.00 0.00 0.00 94 1014.4
20260509103022 38 292 0.0 0.0 0.00 0.00 0.00 94 1014.4
20260509101520 37 292 0.0 0.0 0.00 0.00 0.00 94 1013.7
20260509100017 37 292 0.0 0.0 0.00 0.00 0.00 93 1013.4
20260509094516 36 292 0.0 0.0 0.00 0.00 0.00 93 1013.1
20260509093016 36 292 0.0 0.0 0.00 0.00 0.00 93 1012.9
20260509091525 35 292 0.0 0.0 0.00 0.00 0.00 93 1012.9
20260509090013 35 292 0.0 0.0 0.00 0.00 0.00 92 1013.1
20260509084519 35 292 0.0 0.0 0.00 0.00 0.00 92 1013.0
20260509083011 35 292 0.0 0.0 0.00 0.00 0.00 91 1012.9
20260509081511 35 292 0.0 0.0 0.00 0.00 0.00 91 1013.2
20260509080020 36 292 0.0 0.0 0.00 0.00 0.00 91 1013.3
20260509074508 36 292 0.0 0.0 0.00 0.00 0.00 91 1013.2
20260509073016 36 292 0.0 0.0 0.00 0.00 0.00 91 1013.3
20260509071505 36 292 0.0 0.0 0.00 0.00 0.00 90 1013.2
20260509070004 36 292 0.0 0.0 0.00 0.00 0.00 90 1013.3
20260509064503 36 292 0.0 0.0 0.00 0.00 0.00 90 1013.3
20260509063002 37 292 0.0 0.0 0.00 0.00 0.00 89 1013.3
20260509061501 37 292 0.0 0.0 0.00 0.00 0.00 88 1013.3
20260509060058 37 292 0.0 0.0 0.00 0.00 0.00 88 1013.1
20260509054603 37 292 0.0 0.0 0.00 0.00 0.00 87 1012.9
20260509053055 38 292 0.0 0.0 0.00 0.00 0.00 87 1013.0
20260509051559 38 292 0.0 0.0 0.00 0.00 0.00 87 1013.0
20260509050053 39 292 0.0 0.0 0.00 0.00 0.00 86 1013.1
20260509044551 39 292 0.0 0.0 0.00 0.00 0.00 86 1013.0
20260509043054 40 292 0.0 0.0 0.00 0.00 0.00 85 1013.1
20260509041544 40 292 0.0 0.0 0.00 0.00 0.00 84 1012.9
20260509040045 41 292 0.0 0.0 0.00 0.00 0.00 82 1012.6
20260509034540 41 292 0.0 0.0 0.00 0.00 0.00 81 1012.5
20260509033041 42 292 0.0 0.0 0.00 0.00 0.00 80 1012.5
20260509031539 43 292 0.0 0.0 0.00 0.00 0.00 79 1012.6
20260509030041 44 292 0.0 0.0 0.00 0.00 0.00 77 1012.5
20260509024537 44 292 0.0 0.0 0.00 0.00 0.00 75 1012.4
20260509023035 45 292 0.0 0.0 0.00 0.00 0.00 74 1012.3
20260509021535 46 292 0.0 0.0 0.00 0.00 0.00 71 1012.2
20260509020033 47 292 0.0 0.0 0.00 0.00 0.00 69 1012.1
20260509014533 48 292 0.0 0.0 0.00 0.00 0.00 66 1011.9
20260509013044 49 292 0.0 0.0 0.00 0.00 0.00 65 1011.5
20260509011526 50 292 0.0 0.0 0.00 0.00 0.00 63 1011.2
20260509010025 51 292 0.0 0.0 0.00 0.00 0.00 62 1010.9
20260509004536 51 292 0.0 0.0 0.00 0.00 0.00 55 1010.8
20260509003022 52 292 0.0 0.0 0.00 0.00 0.00 53 1010.4
20260509001517 52 292 0.0 0.0 0.00 0.00 0.00 52 1010.1
20260509000015 53 292 0.0 0.0 0.00 0.00 0.00 51 1009.8
20260508234511 54 293 0.0 0.0 0.00 0.00 0.00 50 1009.4
20260508233012 54 293 0.0 0.0 0.00 0.00 0.00 50 1009.3
20260508231510 55 131 0.0 0.0 0.00 0.00 0.00 48 1009.1
20260508230032 55 312 0.0 0.0 0.00 0.00 0.00 46 1009.1
20260508224509 56 236 0.0 0.0 0.00 0.00 0.00 47 1008.9
20260508223016 57 238 0.0 0.0 0.00 0.00 0.00 46 1008.9
20260508221508 57 277 0.0 0.0 0.00 0.00 0.00 46 1008.7
20260508220014 57 255 0.0 0.0 0.00 0.00 0.00 48 1008.8
20260508214508 57 212 0.0 0.0 0.00 0.00 0.00 48 1008.6
20260508213007 58 310 0.0 0.0 0.00 0.00 0.00 47 1008.5
20260508211509 58 238 0.0 0.0 0.00 0.00 0.00 47 1008.5
20260508210007 58 300 0.0 0.0 0.00 0.00 0.00 47 1008.6
20260508204506 57 308 0.0 0.0 0.00 0.00 0.00 48 1008.6
20260508203006 57 90 0.0 0.0 0.00 0.00 0.00 47 1008.4
20260508201504 58 283 0.0 0.0 0.00 0.00 0.00 46 1008.4
20260508200004 58 300 0.0 0.0 0.00 0.00 0.00 43 1008.0
20260508194504 59 68 0.0 0.0 0.00 0.00 0.00 42 1007.9
20260508193003 59 225 0.0 0.0 0.00 0.00 0.00 39 1007.6
20260508191505 60 338 0.0 0.0 0.00 0.00 0.00 38 1007.6
20260508190002 61 322 0.0 0.0 0.00 0.00 0.00 37 1007.6
20260508184501 60 221 0.0 0.0 0.00 0.00 0.00 39 1007.5
20260508183003 60 264 0.0 0.0 0.00 0.00 0.00 40 1007.5
20260508181608 61 304 0.0 0.0 0.00 0.00 0.00 38 1007.5
20260508180100 61 290 0.0 0.0 0.00 0.00 0.00 38 1007.5
20260508174600 62 207 0.0 0.0 0.00 0.00 0.00 36 1007.5
20260508173058 62 279 0.0 0.0 0.00 0.00 0.00 36 1007.6